Hourly Data Report for September 21, 2017

All times are specified in Local Standard Time (LST). Add 1 hour to adjust for Daylight Saving Time where and when it is observed.

PANGNIRTUNG
NUNAVUT

66°08'36.300" N
65°42'40.500" W
22.60 m
2403049
71826
WXP

Download Data

Hourly Data (September 2017)
Hourly Data Report for September 21, 2017
Temp Definition
°C
Dew Point Temp Definition
°C
Rel Hum Definition
%
Wind Dir Definition
10's deg

Wind Spd Definition
km/h
Visibility Definition
km
Stn Press Definition
kPa
Hmdx Definition


Wind Chill Definition


Weather Definition


TIME
00:00 1.7 1.0 95 7 2   101.84     LegendNANA
01:00 1.3 1.0 98 8 3   101.82     LegendNANA
02:00 1.6 0.9 96 12 3   101.77     LegendNANA
03:00 1.4 0.8 96 24 4   101.74     LegendNANA
04:00 1.4 1.0 97 23 4   101.70     LegendNANA
05:00 1.7 0.7 94 24 10   101.67     LegendNANA
06:00 1.6 0.7 93 23 7   101.63     LegendNANA
07:00 2.1 0.8 91 24 7   101.57     LegendNANA
08:00 2.4 0.4 87 23 7   101.53     LegendNANA
09:00 2.1 0.5 89 24 7   101.49     LegendNANA
10:00 2.4 0.4 86 25 9   101.44     LegendNANA
11:00 2.3 0.5 88 24 11   101.37     LegendNANA
12:00 1.9 1.0 94 3 8   101.29     LegendNANA
13:00 1.5 0.7 95 4 8   101.23     LegendNANA
14:00 1.7 0.3 91 4 7   101.20     LegendNANA
15:00 1.6 0.1 90 3 6   101.13     LegendNANA
16:00 1.6 0.1 90 8 4   101.09     LegendNANA
17:00 1.8 -0.4 86 14 5   101.05     LegendNANA
18:00 1.4 0.0 90 8 2   101.00     LegendNANA
19:00 1.7 -1.2 81 13 3   100.94     LegendNANA
20:00 1.5 -1.6 80 10 4   100.88     LegendNANA
21:00 1.3 -1.8 79 8 6   100.83     LegendNANA
22:00 1.3 -2.1 78 7 9   100.78     LegendNANA
23:00 0.8 -1.6 84 6 9   100.76     LegendNANA

Notes on Data Quality.

Legend

  • E = Estimated
  • M = Missing
  • NA = Not Available
  • ‡ = Partner data that is not subject to review by the National Climate Archives
Date modified: